Massena, NY

7:54 AM EDT on April 23, 2018 (GMT -0400)
Massena International-Richards

Weather History for KMSS - November, 2011

Change the Weather History Date:

Friday, November 11, 2011

  Actual Average Record
Temperature  
Mean Temperature 35 °F 37 °F  
Max Temperature 42 °F 46 °F 70 °F (2002)
Min Temperature 27 °F 29 °F 11 °F (1957)
Degree Days  
Heating Degree Days 30 28  
Month to date heating degree days 238 286  
Since 1 July heating degree days 843 1167  
Cooling Degree Days 0 0  
Month to date cooling degree days 0  
Year to date cooling degree days 363  
Moisture  
Dew Point 27 °F    
Average Humidity 72    
Maximum Humidity 92    
Minimum Humidity 52    
Precipitation  
Precipitation 0.00 in 0.09 in 0.63 in (2006)
Month to date precipitation 0.04 1.16  
Year to date precipitation 27.41 30.66  
Sea Level Pressure  
Sea Level Pressure 29.69 in    
Wind  
Wind Speed 9 mph (WSW)    
Max Wind Speed 22 mph    
Max Gust Speed 30 mph    
Visibility 9 miles    
Events      
T = Trace of Precipitation, MM = Missing Value Source: NWS Daily Summary

Daily Weather History Graph

Daily Weather History Graph

Search for Another Location

Airport or City:

Astronomy

Nov. 11, 2011 Rise Set
Actual Time 6:51 AM EST 4:35 PM EST
Civil Twilight 6:19 AM EST 5:06 PM EST
Nautical Twilight 5:44 AM EST 5:41 PM EST
Astronomical Twilight 5:09 AM EST 6:16 PM EST
Moon 4:58 PM EST (11/11) 7:41 AM EST (11/11)
Length of Visible Light 10h 46m
Length of Day
9h 44m
Full, 99% of the Moon is Illuminated
Nov 11
Full
Nov 18
Last Quarter
Nov 25
New
Dec 2
First Quarter
Dec 10
Full

Hourly Weather History & Observations

Time (EST) Temp. Windchill Dew Point Humidity Pressure Visibility Wind Dir Wind Speed Gust Speed Precip Events Conditions
12:53 AM 39.0 °F 35.7 °F 33.1 °F 79% 29.71 in 10.0 mi SSW 4.6 mph - N/A   Clear
1:53 AM 39.0 °F 36.8 °F 33.1 °F 79% 29.68 in 10.0 mi WSW 3.5 mph - N/A   Clear
2:53 AM 37.0 °F 34.5 °F 32.0 °F 82% 29.67 in 10.0 mi SW 3.5 mph - N/A   Clear
3:53 AM 33.8 °F 30.8 °F 30.2 °F 87% 29.64 in 9.0 mi SSW 3.5 mph - N/A   Clear
4:53 AM 30.9 °F - 28.9 °F 92% 29.65 in 7.0 mi Calm Calm - N/A   Clear
5:45 AM 26.6 °F - 24.8 °F 93% 29.63 in 1.0 mi Calm Calm - N/A   Clear
5:51 AM 28.4 °F - 26.6 °F 93% 29.63 in 2.5 mi Calm Calm - N/A   Clear
5:53 AM 28.0 °F - 26.1 °F 92% 29.64 in 4.0 mi Calm Calm - N/A   Clear
6:53 AM 28.4 °F 23.3 °F 26.6 °F 93% 29.63 in 5.0 mi WSW 4.6 mph - N/A   Clear
7:53 AM 33.1 °F 27.7 °F 30.0 °F 89% 29.64 in 7.0 mi WSW 5.8 mph - N/A   Clear
8:53 AM 39.0 °F 34.0 °F 32.0 °F 76% 29.64 in 10.0 mi West 6.9 mph - N/A   Clear
9:53 AM 39.2 °F 33.6 °F 30.2 °F 70% 29.63 in 10.0 mi WNW 8.1 mph - N/A   Mostly Cloudy
10:53 AM 41.0 °F 34.7 °F 30.2 °F 65% 29.62 in 10.0 mi WNW 10.4 mph - N/A   Overcast
11:53 AM 41.0 °F 35.2 °F 30.0 °F 65% 29.62 in 10.0 mi West 9.2 mph - N/A   Overcast
12:53 PM 39.9 °F 32.1 °F 27.0 °F 60% 29.62 in 10.0 mi West 13.8 mph 20.7 mph N/A   Overcast
1:53 PM 39.9 °F 31.4 °F 26.1 °F 58% 29.64 in 10.0 mi West 16.1 mph 23.0 mph N/A   Overcast
2:53 PM 39.9 °F 32.1 °F 25.0 °F 55% 29.66 in 10.0 mi West 13.8 mph 21.9 mph N/A   Overcast
3:53 PM 37.9 °F 30.5 °F 25.0 °F 60% 29.70 in 10.0 mi West 11.5 mph 20.7 mph N/A   Overcast
4:53 PM 37.9 °F 30.0 °F 21.9 °F 53% 29.73 in 10.0 mi West 12.7 mph 25.3 mph N/A   Overcast
5:53 PM 37.0 °F 27.7 °F 24.1 °F 59% 29.76 in 10.0 mi West 16.1 mph 23.0 mph N/A   Overcast
6:53 PM 37.0 °F 29.8 °F 24.1 °F 59% 29.78 in 10.0 mi West 10.4 mph - N/A   Overcast
7:53 PM 37.0 °F 28.1 °F 23.0 °F 57% 29.80 in 10.0 mi West 15.0 mph - N/A   Overcast
8:53 PM 37.0 °F 28.1 °F 21.0 °F 52% 29.82 in 10.0 mi WSW 15.0 mph 20.7 mph N/A   Overcast
9:53 PM 37.0 °F 31.6 °F 21.9 °F 54% 29.83 in 10.0 mi SW 6.9 mph - N/A   Overcast
10:53 PM 37.0 °F 31.0 °F 21.9 °F 54% 29.83 in 10.0 mi WSW 8.1 mph - N/A   Overcast
11:53 PM 36.0 °F 27.5 °F 19.9 °F 52% 29.86 in 10.0 mi West 12.7 mph 21.9 mph N/A   Partly Cloudy